Tracking 30743 objects as of 21-Jun-2025
HD Live streaming from Space Station
objects crossing your sky now

SL-14 DEB

Track SL-14 DEB now!
10-day predictions


NORAD ID: 45297
Int'l Code: 1991-056AK
Perigee: 1,175.6 km
Apogee: 1,227.8 km
Inclination: 82.6 °
Period: 109.3 minutes
Semi major axis: 7572 km
RCS: Unknown
Launch date: August 15, 1991
Source: Commonwealth of Independent States (former USSR) (CIS)
Launch site: PLESETSK MISSILE AND SPACE COMPLEX (PKMTR)

Note: This is SATELLITE DEBRIS
Your satellite tracking list
Your tracking list is empty




NASA's NSSDC Master Catalog

Two Line Element Set (TLE):
1 45297U 91056AK  25171.43980660  .00006335  00000-0  16276-1 0  9990
2 45297  82.5865  68.7449 0034456 208.0293 151.8975 13.17435059255025
Source of the keplerian elements: AFSPC